Location: Eurasberg
(48.3353°N, 11.0839°E)
Time: 13:26:15
(UTC+00:00)

Timation 1 Rocket - Pass Details

Date: 22 April 2026
Orbit: 895 x 908 km, 70.0° (Epoch: 14 May)

Event Time Altitude Azimuth Distance (km) Brightness Sun altitude
Exits shadow 23:42:54 82° 289° (WNW) 923 4.2 -28.9°
Maximum altitude 23:42:58 82° 300° (WNW) 923 4.3 -28.9°
Drops below altitude 10° 23:49:00 10° 28° (NNE) 2,603 7.6 -28.7°
Sets 23:51:31 0° 30° (NNE) 3,548 8.5 -28.6°
